EW8865 Weather Reports


Display with metric or nautical units.
time (UTC)temp
F
wind
direction
speed
MPH
gust
MPH
rain 1hr
in
rain 24hr
in
rain mn
in
humidity
%
barometer
mb
20260507043004 47 92 3.0 7.0 0.00 0.00 0.00 80 1014.1
20260507042504 47 80 2.0 9.0 0.00 0.00 0.00 80 1014.2
20260507041503 47 81 3.0 9.0 0.00 0.00 0.00 80 1014.2
20260507041003 47 91 3.0 7.0 0.00 0.00 0.00 79 1014.2
20260507040504 47 79 4.0 7.0 0.00 0.00 0.00 79 1014.2
20260507040004 47 67 3.0 6.0 0.00 0.00 0.00 79 1014.2
20260507035504 47 94 2.0 8.0 0.00 0.00 0.00 79 1014.2
20260507035004 47 102 3.0 9.0 0.00 0.00 0.00 79 1014.1
20260507034504 47 113 2.0 7.0 0.00 0.00 0.00 79 1014.0
20260507034004 47 86 3.0 5.0 0.00 0.00 0.00 79 1014.0
20260507033503 47 82 4.0 8.0 0.00 0.00 0.00 79 1014.1
20260507033004 48 112 2.0 6.0 0.00 0.00 0.00 79 1014.2
20260507032504 48 115 3.0 7.0 0.00 0.00 0.00 79 1014.1
20260507032004 48 75 3.0 7.0 0.00 0.00 0.00 79 1014.1
20260507031503 48 87 2.0 7.0 0.00 0.00 0.00 78 1014.1
20260507031004 48 80 3.0 6.0 0.00 0.00 0.00 78 1014.2
20260507030503 48 89 2.0 3.0 0.00 0.00 0.00 78 1014.1
20260507030004 48 89 2.0 6.0 0.00 0.00 0.00 78 1014.2
20260507025503 48 94 2.0 3.0 0.00 0.00 0.00 78 1014.2
20260507025004 48 96 3.0 8.0 0.00 0.00 0.00 78 1014.2
20260507024503 48 61 4.0 8.0 0.00 0.00 0.00 78 1014.2
20260507024004 48 97 3.0 8.0 0.00 0.00 0.00 77 1014.2
20260507023503 48 86 2.0 6.0 0.00 0.00 0.00 77 1014.2
20260507023004 48 91 2.0 3.0 0.00 0.00 0.00 77 1014.2
20260507022504 48 95 2.0 6.0 0.00 0.00 0.00 77 1014.2
20260507022004 48 96 1.0 6.0 0.00 0.00 0.00 77 1014.2
20260507021504 48 78 3.0 7.0 0.00 0.00 0.00 77 1014.2
20260507021004 48 95 5.0 7.0 0.00 0.00 0.00 77 1014.2
20260507020503 48 93 3.0 8.0 0.00 0.00 0.00 77 1014.2
20260507020004 48 97 2.0 3.0 0.00 0.00 0.00 76 1014.2
20260507015504 48 94 3.0 6.0 0.00 0.00 0.00 76 1014.2
20260507015004 49 90 3.0 7.0 0.00 0.00 0.00 76 1014.2
20260507014004 49 93 3.0 8.0 0.00 0.00 0.00 76 1014.2
20260507013503 49 96 4.0 9.0 0.00 0.00 0.00 76 1014.1
20260507013004 49 112 5.0 9.0 0.00 0.00 0.00 75 1014.2
20260507012504 49 87 4.0 7.0 0.00 0.00 0.00 75 1014.2
20260507012004 49 98 3.0 7.0 0.00 0.00 0.00 75 1014.2
20260507011504 49 94 5.0 7.0 0.00 0.00 0.00 75 1014.3
20260507011003 49 95 4.0 7.0 0.00 0.00 0.00 75 1014.3
20260507010504 49 103 2.0 8.0 0.00 0.00 0.00 74 1014.3
20260507010004 49 100 5.0 8.0 0.00 0.00 0.00 74 1014.3
20260507005504 49 109 3.0 7.0 0.00 0.00 0.00 74 1014.3
20260507004504 49 119 2.0 6.0 0.00 0.00 0.00 73 1014.2
20260507003503 50 86 3.0 8.0 0.00 0.00 0.00 73 1014.2
20260507003004 50 119 5.0 8.0 0.00 0.00 0.00 72 1014.2
20260507002504 50 99 3.0 8.0 0.00 0.00 0.00 72 1014.3
20260507002004 50 90 5.0 8.0 0.00 0.00 0.00 72 1014.2
20260507001504 50 93 3.0 8.0 0.00 0.00 0.00 71 1014.3
20260507001004 50 89 5.0 9.0 0.00 0.00 0.00 71 1014.3
20260507000503 50 102 5.0 8.0 0.00 0.00 0.00 71 1014.3
20260507000004 50 98 5.0 8.0 0.00 0.00 0.00 70 1014.3
20260506235503 50 104 3.0 8.0 0.00 0.00 0.00 70 1014.3
20260506235004 50 94 2.0 8.0 0.00 0.00 0.00 70 1014.3
20260506234503 50 88 5.0 9.0 0.00 0.00 0.00 69 1014.3
20260506234003 50 104 3.0 8.0 0.00 0.00 0.00 69 1014.2
20260506233504 50 103 4.0 8.0 0.00 0.00 0.00 69 1014.2
20260506233003 50 113 3.0 6.0 0.00 0.00 0.00 68 1014.2
20260506231504 51 99 3.0 7.0 0.00 0.00 0.00 67 1014.2
20260506231003 50 99 3.0 7.0 0.00 0.00 0.00 67 1014.2
20260506230503 50 106 3.0 7.0 0.00 0.00 0.00 67 1014.1
20260506230004 50 103 3.0 7.0 0.00 0.00 0.00 67 1014.2
20260506225504 50 96 2.0 8.0 0.00 0.00 0.00 67 1014.2
20260506225004 50 111 2.0 3.0 0.00 0.00 0.00 67 1014.2
20260506224503 50 111 2.0 6.0 0.00 0.00 0.00 67 1014.2
20260506224004 50 108 2.0 6.0 0.00 0.00 0.00 68 1014.1
20260506223504 50 97 1.0 3.0 0.00 0.00 0.00 68 1014.1
20260506223003 50 97 1.0 3.0 0.00 0.00 0.00 68 1014.1
20260506222503 50 97 1.0 3.0 0.00 0.00 0.00 67 1014.0
20260506222004 50 97 1.0 3.0 0.00 0.00 0.00 68 1014.0
20260506221504 51 97 1.0 3.0 0.00 0.00 0.00 67 1014.0
20260506221004 51 120 2.0 3.0 0.00 0.00 0.00 67 1014.0
20260506220503 51 134 1.0 3.0 0.00 0.00 0.00 67 1013.9
20260506220004 51 134 2.0 3.0 0.00 0.00 0.00 66 1013.9
20260506215504 51 135 2.0 3.0 0.00 0.00 0.00 66 1013.9
20260506215004 51 135 1.0 2.0 0.00 0.00 0.00 67 1013.9
20260506214504 51 135 1.0 2.0 0.00 0.00 0.00 67 1013.9
20260506214004 51 135 1.0 3.0 0.00 0.00 0.00 66 1013.9
20260506213503 51 135 2.0 3.0 0.00 0.00 0.00 66 1013.9
20260506213003 51 135 2.0 3.0 0.00 0.00 0.00 66 1013.9
20260506212503 52 135 2.0 3.0 0.00 0.00 0.00 65 1013.8
20260506211003 52 135 1.0 3.0 0.00 0.00 0.00 65 1013.8
20260506210503 52 135 1.0 3.0 0.00 0.00 0.00 65 1013.7
20260506210004 52 138 2.0 3.0 0.00 0.00 0.00 64 1013.7
20260506205504 52 138 0.0 0.0 0.00 0.00 0.00 64 1013.7
20260506205004 53 138 2.0 2.0 0.00 0.00 0.00 63 1013.7
20260506204503 53 138 2.0 3.0 0.00 0.00 0.00 62 1013.7
20260506203505 53 138 2.0 3.0 0.00 0.00 0.00 63 1013.7
20260506203003 53 138 1.0 3.0 0.00 0.00 0.00 63 1013.6
20260506202503 53 138 1.0 3.0 0.00 0.00 0.00 64 1013.7
20260506202003 54 138 1.0 2.0 0.00 0.00 0.00 62 1013.6
20260506201503 54 138 1.0 2.0 0.00 0.00 0.00 62 1013.6
20260506200503 54 138 1.0 2.0 0.00 0.00 0.00 62 1013.5
20260506200004 54 138 1.0 2.0 0.00 0.00 0.00 61 1013.4
20260506195504 54 138 2.0 3.0 0.00 0.00 0.00 61 1013.4
20260506194504 55 138 1.0 2.0 0.00 0.00 0.00 59 1013.4
20260506194003 55 138 1.0 3.0 0.00 0.00 0.00 59 1013.3
20260506193504 55 138 2.0 3.0 0.00 0.00 0.00 58 1013.3
20260506193004 55 137 2.0 3.0 0.00 0.00 0.00 58 1013.2
20260506192504 55 141 1.0 3.0 0.00 0.00 0.00 58 1013.2
20260506192004 55 134 1.0 2.0 0.00 0.00 0.00 57 1013.3
20260506191503 56 134 1.0 3.0 0.00 0.00 0.00 56 1013.2
20260506191003 56 134 1.0 3.0 0.00 0.00 0.00 57 1013.2
20260506190005 56 134 2.0 3.0 0.00 0.00 0.00 56 1013.2
20260506185505 56 134 2.0 3.0 0.00 0.00 0.00 56 1013.2
20260506185003 56 134 1.0 3.0 0.00 0.00 0.00 56 1013.1
20260506184503 56 134 2.0 3.0 0.00 0.00 0.00 57 1013.1
20260506183504 56 132 3.0 5.0 0.00 0.00 0.00 56 1013.1
20260506183004 56 138 2.0 3.0 0.00 0.00 0.00 55 1013.1
20260506182505 56 132 2.0 3.0 0.00 0.00 0.00 56 1013.1
20260506182004 57 135 3.0 3.0 0.00 0.00 0.00 55 1013.0
20260506181503 57 137 3.0 7.0 0.00 0.00 0.00 56 1013.0
20260506181004 57 124 1.0 3.0 0.00 0.00 0.00 57 1013.0
20260506180504 57 127 2.0 3.0 0.00 0.00 0.00 57 1013.0
20260506180005 57 138 2.0 5.0 0.00 0.00 0.00 56 1013.0
20260506175503 57 130 2.0 5.0 0.00 0.00 0.00 56 1012.9
20260506175003 57 125 2.0 5.0 0.00 0.00 0.00 55 1012.9
20260506174503 57 124 3.0 7.0 0.00 0.00 0.00 53 1012.9
20260506174003 57 113 4.0 8.0 0.00 0.00 0.00 52 1012.9
20260506173504 57 109 2.0 6.0 0.00 0.00 0.00 53 1012.9
20260506172503 58 65 2.0 3.0 0.00 0.00 0.00 53 1012.8
20260506172004 58 65 3.0 7.0 0.00 0.00 0.00 53 1012.8
20260506171503 58 117 2.0 3.0 0.00 0.00 0.00 52 1012.8
20260506171003 58 137 2.0 3.0 0.00 0.00 0.00 53 1012.7
20260506170004 58 138 2.0 3.0 0.00 0.00 0.00 54 1012.8
20260506165504 58 139 1.0 3.0 0.00 0.00 0.00 51 1012.7
20260506164503 59 113 5.0 8.0 0.00 0.00 0.00 53 1012.7
20260506164004 59 126 5.0 8.0 0.00 0.00 0.00 52 1012.7
20260506162503 59 127 3.0 7.0 0.00 0.00 0.00 50 1012.7
20260506162003 60 158 3.0 8.0 0.00 0.00 0.00 48 1012.7
20260506161503 60 113 5.0 9.0 0.00 0.00 0.00 49 1012.7
20260506161003 60 107 6.0 9.0 0.00 0.00 0.00 49 1012.7
20260506160504 60 92 3.0 8.0 0.00 0.00 0.00 47 1012.7
20260506160004 60 92 2.0 7.0 0.00 0.00 0.00 49 1012.8
20260506155503 61 136 3.0 6.0 0.00 0.00 0.00 49 1012.8
20260506155004 61 115 3.0 5.0 0.00 0.00 0.00 50 1012.8
20260506154004 60 128 5.0 9.0 0.00 0.00 0.00 52 1012.8
20260506153504 60 176 5.0 9.0 0.00 0.00 0.00 48 1012.8
20260506153004 61 149 5.0 9.0 0.00 0.00 0.00 47 1012.8
20260506152504 62 131 7.0 12.0 0.00 0.00 0.00 48 1012.8
20260506152004 63 169 5.0 8.0 0.00 0.00 0.00 47 1012.8
20260506151004 62 110 3.0 10.0 0.00 0.00 0.00 46 1012.9
20260506150504 62 96 5.0 9.0 0.00 0.00 0.00 47 1012.9
20260506145503 61 72 3.0 8.0 0.00 0.00 0.00 47 1012.9
20260506145004 62 61 5.0 10.0 0.00 0.00 0.00 46 1013.0
20260506144503 62 117 5.0 12.0 0.00 0.00 0.00 44 1013.0
20260506144004 62 94 4.0 10.0 0.00 0.00 0.00 48 1013.1
20260506143504 62 102 6.0 12.0 0.00 0.00 0.00 50 1013.0
20260506143003 62 75 7.0 12.0 0.00 0.00 0.00 49 1013.0
20260506142003 62 81 6.0 10.0 0.00 0.00 0.00 47 1013.1
20260506141504 62 123 5.0 9.0 0.00 0.00 0.00 49 1013.1
20260506141004 61 89 5.0 10.0 0.00 0.00 0.00 52 1013.2
20260506140004 61 59 3.0 9.0 0.00 0.00 0.00 52 1013.3
20260506135503 60 111 5.0 10.0 0.00 0.00 0.00 48 1013.4
20260506135004 60 114 4.0 8.0 0.00 0.00 0.00 48 1013.3
20260506134503 60 108 3.0 7.0 0.00 0.00 0.00 51 1013.3
20260506133503 60 83 7.0 12.0 0.00 0.00 0.00 47 1013.4
20260506133003 60 313 2.0 9.0 0.00 0.00 0.00 48 1013.4
20260506132505 60 70 6.0 10.0 0.00 0.00 0.00 47 1013.5
20260506132003 60 90 3.0 12.0 0.00 0.00 0.00 49 1013.4
20260506131504 61 90 5.0 10.0 0.00 0.00 0.00 48 1013.5
20260506131003 61 75 6.0 9.0 0.00 0.00 0.00 47 1013.4
20260506130504 62 127 7.0 12.0 0.00 0.00 0.00 46 1013.4
20260506130005 62 64 5.0 12.0 0.00 0.00 0.00 48 1013.5
20260506125504 62 122 4.0 13.0 0.00 0.00 0.00 47 1013.5
20260506124504 62 148 6.0 12.0 0.00 0.00 0.00 48 1013.5
20260506123504 61 97 10.0 15.0 0.00 0.00 0.00 48 1013.4
20260506123005 60 132 8.0 14.0 0.00 0.00 0.00 47 1013.4
20260506122504 60 125 9.0 12.0 0.00 0.00 0.00 49 1013.4
20260506122003 60 115 9.0 15.0 0.00 0.00 0.00 48 1013.4
20260506121503 60 117 11.0 16.0 0.00 0.00 0.00 47 1013.4
20260506121003 60 102 9.0 15.0 0.00 0.00 0.00 49 1013.4
20260506120504 61 97 7.0 13.0 0.00 0.00 0.00 45 1013.4
20260506120003 61 118 8.0 12.0 0.00 0.00 0.00 47 1013.4
20260506115003 59 122 5.0 13.0 0.00 0.00 0.00 55 1013.5
20260506114505 59 120 6.0 14.0 0.00 0.00 0.00 52 1013.5
20260506113504 58 108 6.0 12.0 0.00 0.00 0.00 51 1013.5
20260506113004 58 115 8.0 13.0 0.00 0.00 0.00 52 1013.6
20260506112503 58 103 7.0 12.0 0.00 0.00 0.00 50 1013.6
20260506112004 58 88 7.0 10.0 0.00 0.00 0.00 53 1013.6
20260506111503 57 103 10.0 13.0 0.00 0.00 0.00 53 1013.7
20260506110004 57 101 7.0 12.0 0.00 0.00 0.00 52 1013.8
20260506105503 57 91 6.0 12.0 0.00 0.00 0.00 53 1013.8
20260506104504 57 95 7.0 14.0 0.00 0.00 0.00 58 1013.8
20260506104005 57 114 7.0 12.0 0.00 0.00 0.00 58 1013.8
20260506103503 56 86 6.0 12.0 0.00 0.00 0.00 58 1013.8
20260506103003 55 114 4.0 10.0 0.00 0.00 0.00 59 1013.7
20260506102504 55 102 6.0 12.0 0.00 0.00 0.00 58 1013.8
20260506102004 55 114 5.0 12.0 0.00 0.00 0.00 58 1013.8
20260506101003 55 109 7.0 10.0 0.00 0.00 0.00 59 1013.9
20260506100504 54 117 4.0 9.0 0.00 0.00 0.00 60 1013.9
20260506100004 54 131 4.0 9.0 0.00 0.00 0.00 61 1013.9
20260506095504 53 122 5.0 9.0 0.00 0.00 0.00 62 1013.9
20260506095004 53 122 5.0 10.0 0.00 0.00 0.00 61 1013.9
20260506094504 53 93 3.0 9.0 0.00 0.00 0.00 62 1014.0
20260506094004 53 72 4.0 8.0 0.00 0.00 0.00 65 1014.0
20260506093503 52 108 3.0 8.0 0.00 0.00 0.00 64 1013.9
20260506093004 52 104 5.0 9.0 0.00 0.00 0.00 63 1013.9
20260506092503 52 111 5.0 10.0 0.00 0.00 0.00 64 1013.8
20260506092003 52 117 7.0 12.0 0.00 0.00 0.00 63 1013.9
20260506091504 52 92 6.0 10.0 0.00 0.00 0.00 64 1013.9
20260506091003 52 90 7.0 10.0 0.00 0.00 0.00 65 1013.9
20260506090504 52 123 7.0 12.0 0.00 0.00 0.00 63 1013.9
20260506090004 52 98 5.0 10.0 0.00 0.00 0.00 66 1013.9
20260506085504 52 83 4.0 12.0 0.00 0.00 0.00 66 1013.9
20260506085004 52 80 3.0 12.0 0.00 0.00 0.00 66 1013.8
20260506084504 51 54 5.0 10.0 0.00 0.00 0.00 67 1013.8
20260506084004 51 78 5.0 12.0 0.00 0.00 0.00 66 1013.7
20260506083504 51 100 4.0 7.0 0.00 0.00 0.00 67 1013.8
20260506083004 51 85 2.0 7.0 0.00 0.00 0.00 66 1013.8
20260506082004 50 82 4.0 9.0 0.00 0.00 0.00 66 1013.8
20260506081503 50 76 5.0 10.0 0.00 0.00 0.00 66 1013.8
20260506080503 50 66 4.0 9.0 0.00 0.00 0.00 67 1013.9
20260506073504 48 80 5.0 12.0 0.00 0.00 0.00 68 1013.8
20260506073004 48 71 5.0 8.0 0.00 0.00 0.00 68 1013.7
20260506072004 48 74 4.0 9.0 0.00 0.00 0.00 68 1013.7
20260506071504 48 90 4.0 9.0 0.00 0.00 0.00 68 1013.7
20260506071004 48 67 4.0 10.0 0.00 0.00 0.00 68 1013.7
20260506070504 48 106 3.0 9.0 0.00 0.00 0.00 69 1013.7
20260506062004 48 53 5.0 9.0 0.00 0.00 0.00 75 1013.3
20260506061503 48 33 5.0 9.0 0.00 0.00 0.00 75 1013.3
20260506061004 48 39 5.0 10.0 0.00 0.00 0.00 76 1013.3
20260506060504 48 41 3.0 7.0 0.00 0.00 0.00 76 1013.3
20260506051003 48 55 3.0 6.0 0.00 0.00 0.00 77 1013.0
20260506050503 48 45 3.0 7.0 0.00 0.00 0.00 76 1013.0
20260506045003 48 59 2.0 5.0 0.00 0.00 0.00 76 1012.9
20260506044503 48 52 3.0 5.0 0.00 0.00 0.00 75 1012.9
20260506044004 48 72 2.0 3.0 0.00 0.00 0.00 75 1013.0
20260506043504 48 40 3.0 8.0 0.00 0.00 0.00 75 1012.9